STARLINK-35534 (66202 NORAD) Tracking and Keplerian Element Data

This shows tracking and keplerian element data for the satellite.

Feedback or suggestion? Click here.




ElementValue
Catalog66202
NameSTARLINK-35534
Epoch Orbit847
Epoch Day354.13259895
Epoch Year2025
RAAN254.7566
Inclination53.1606
Eccentricity0.0002625
Argument of Perigee119.5422
Mean Anonmoly240.5841
Mean Motion15.30218475
Decay Rate0.00024124
L11 66202U 25243AB 25354.13259895 .00024124 00000+0 82347-3 0 9992
L22 66202 53.1606 254.7566 0002625 119.5422 240.5841 15.30218475 8472



Live tracking and technical data element details for STARLINK-35534 (NORAD 66202). STARLINK-35534 can be tracked NOW for your location showing map with azimuth and elevation plus other details from your city location.







IsCatalogInMostPopularTable: catalog: 66202, numindb: 7
Update: records affected: 1



GetName: 66202 STARLINK-35534

Hit Count: updated at: Sat, 11 Apr 2026 21:26:14 GMT